Overview Statistics Trail Chart Weather Telemetry Raw packets
 

This is the latest recevied weather packets stored in our database for station/object W8LMG. If no packets are shown the sender has not sent any weather packets the latest 10 day(s).

<< 1 2 3 4 5 6 >>
Time Temp. Humidity Pressure Rain* Wind** Luminosity Snow
1788609416 18.33° C 99% 1016.3 hPa 0 mm - 20 W/m² -
1788609111 18.33° C 99% 1016.3 hPa 0 mm - 17 W/m² -
1788608810 18.33° C 99% 1016.2 hPa 0 mm - 17 W/m² -
1788608509 18.33° C 99% 1016.2 hPa 0 mm - 18 W/m² -
1788608203 18.33° C 99% 1016.2 hPa 0 mm - 16 W/m² -
1788607899 18.33° C 99% 1016.3 hPa 0 mm - 12 W/m² -
1788607599 18.33° C 99% 1016.3 hPa 0 mm - 10 W/m² -
1788607295 18.33° C 99% 1016.4 hPa 0 mm - 8 W/m² -
1788606995 18.33° C 99% 1016.4 hPa 0 mm - 5 W/m² -
1788606694 18.33° C 99% 1016.7 hPa 0 mm - 4 W/m² -
1788606393 18.33° C 99% 1016.5 hPa 0 mm - 3 W/m² -
1788606088 18.33° C 99% 1016.4 hPa 0 mm - 2 W/m² -
1788605783 18.33° C 99% 1016.2 hPa 0 mm - 1 W/m² -
1788605482 18.33° C 99% 1016.2 hPa 0 mm - 1 W/m² -
1788605178 18.33° C 99% 1016.2 hPa 0 mm - 0 W/m² -
1788604873 18.33° C 99% 1016.1 hPa 0 mm - 0 W/m² -
1788604568 18.33° C 99% 1016.1 hPa 0 mm - 0 W/m² -
1788604264 18.33° C 99% 1016 hPa 0 mm - 0 W/m² -
1788603960 18.33° C 99% 1016.1 hPa 0 mm - 0 W/m² -
1788603656 18.33° C 99% 1016.1 hPa 0 mm - 0 W/m² -
1788603354 18.33° C 99% 1016.1 hPa 0 mm - 0 W/m² -
1788603053 18.33° C 99% 1016.1 hPa 0 mm - 0 W/m² -
1788602749 18.33° C 99% 1016.2 hPa 0 mm - 0 W/m² -
1788602449 18.33° C 99% 1016.1 hPa 0 mm - 0 W/m² -
1788602143 18.33° C 99% 1016.4 hPa 0 mm - 0 W/m² -

* Rain latest hour (hover to see other rain measurements)
** Current wind speed in m/s (hover to see current wind gust speed)